Location: Rockford
(42.2710°N, 89.0940°W)
Time: 18:06:58
(UTC-06:00)

Daily predictions for brighter satellites

Satellite Brightness Start Highest point End
(mag) Time Altitude Azimuth Time Altitude Azimuth Time Altitude Azimuth
FENGYUN 3A 4.3 17:20:23 10° SE 17:25:02 31° ENE 17:29:44 10° N
SL-14 R/B 3.4 17:22:51 10° S 17:26:43 55° E 17:30:35 10° NNE
SPOT 3 Rocket 4.4 17:24:05 10° ESE 17:28:20 27° ENE 17:32:37 10° N
Cosmos 1726 2.4 17:25:08 10° NNW 17:28:48 73° W 17:32:25 10° S
Cosmos 1484 Rocket 3.2 17:25:31 10° S 17:29:16 66° W 17:33:00 10° NNW
Okean 3 Rocket 3.6 17:25:35 10° S 17:30:06 69° E 17:34:36 10° NNE
SKYMED 2 4.3 17:27:25 10° NNE 17:31:23 33° E 17:35:18 10° SSE
Meteor 1-28 Rocket 3.3 17:30:08 10° N 17:33:58 83° WNW 17:37:45 10° SSW
ATLAS 2AS CENTAUR R/B 4.0 17:27:59 10° NW 17:35:32 51° WSW 17:42:27 10° S
Meteor 2-16 Rocket 4.5 17:29:45 10° N 17:35:54 85° E 17:42:02 10° S
METEOR-M 4.2 17:30:44 10° SSE 17:35:59 61° ENE 17:41:17 10° N
Cosmos 2058 4.4 17:34:05 10° SE 17:36:49 17° E 17:39:34 10° NE
Meteor 2-10 4.1 17:32:13 10° NNW 17:37:17 82° W 17:42:26 10° S
Cosmos 968 Rocket 3.7 17:32:17 10° NNW 17:37:26 75° WSW 17:42:32 10° SSE
YAOGAN 1 2.6 17:33:57 10° SSE 17:38:11 57° ENE 17:42:26 10° N
ALOS 2.7 17:34:42 10° SE 17:39:01 39° ENE 17:43:21 10° N
Geosat 4.0 17:34:06 10° NNE 17:39:09 84° ESE 17:44:11 10° SSW
Cosmos 2221 3.4 17:41:03 10° NNW 17:45:19 55° W 17:49:36 10° S
SeaSat 1 3.9 17:46:56 10° S 17:51:35 42° WSW 17:56:16 10° NW
CZ-4 R/B 1.9 17:47:25 10° S 17:51:37 70° WSW 17:55:52 10° NNW
TSX-5 3.4 17:52:26 10° SSW 17:55:36 80° WNW 17:59:13 10° NNE
Meteor 1-11 4.4 17:50:20 10° SSE 17:55:41 49° E 18:01:07 10° NNE
Cosmos 1346 Rocket 3.0 17:52:56 10° N 17:56:42 44° ENE 18:00:25 10° SSE
H-2A R/B 3.8 17:54:05 10° ESE 17:57:10 24° ENE 18:00:17 10° NNE
COSMOS 2406 3.7 17:52:27 10° S 17:57:43 39° ESE 18:02:59 10° NE
NOSS 3-4 (A) 3.8 17:51:35 10° NNW 17:58:39 78° NE 18:06:14 10° SE
NOSS 3-4 (C) 3.8 17:51:41 10° NNW 17:58:45 77° NE 18:06:20 10° SE
Cosmos 2151 3.8 17:57:36 10° SSE 18:01:19 30° E 18:05:04 10° NNE
Cosmos 1455 3.0 17:58:38 10° NNE 18:02:03 29° ENE 18:05:26 10° SE
Cosmos 1315 Rocket 2.9 17:58:26 10° SSW 18:02:22 79° W 18:06:18 10° N
Cosmos 2098 Rocket 4.0 17:58:36 10° N 18:03:55 53° E 18:10:26 10° SSE
CZ-2C R/B 4.1 18:02:42 10° N 18:07:24 69° WNW 18:11:59 10° SSW
Cosmos 1408 Rocket 3.4 18:04:27 10° S 18:08:44 84° E 18:13:04 10° N
Cosmos 1515 Rocket 4.0 18:05:20 10° N 18:09:24 38° ENE 18:13:25 10° SE
Envisat 4.4 18:13:56 17° NE 18:13:56 17° NE 18:16:29 10° NNE
Cosmos 1697 Rocket 4.5 18:12:23 10° NNE 18:14:14 12° NE 18:14:14 12° NE
Cosmos 1626 2.1 18:12:39 10° S 18:16:21 82° W 18:20:06 10° N
COSMO-SKYMED 1 2.8 18:15:11 10° N 18:19:31 72° WNW 18:23:50 10° SSW
Cosmos 44 3.7 18:16:40 10° SW 18:20:53 53° NW 18:24:51 12° NNE
Cosmos 1500 Rocket 3.9 18:18:04 10° SSE 18:22:17 43° E 18:26:10 12° NNE
EO 1 Del DPAF 3.1 18:20:43 10° NNE 18:24:34 80° ESE 18:28:23 10° S
Cosmos 371 Rocket 3.5 18:20:01 10° S 18:24:37 48° ESE 18:27:38 20° NE
Landsat 4 3.9 18:22:58 10° N 18:26:42 68° WNW 18:30:23 10° SSW
NOAA 12 4.1 18:22:10 10° SSE 18:27:24 84° WSW 18:32:41 10° NNW
Tiangong 1 2.2 18:28:37 10° W 18:30:47 27° SSW 18:31:25 23° S
Cosmos 1743 Rocket 3.4 18:32:56 10° S 18:37:17 83° E 18:41:39 10° N
ERS-2 2.1 18:33:46 10° SSE 18:37:27 87° WSW 18:41:10 10° NNW
Cosmos 2228 Rocket 3.1 18:33:29 10° N 18:38:06 85° E 18:42:41 10° S
Cosmos 1328 Rocket 3.8 18:35:23 10° NNW 18:39:44 67° W 18:44:01 10° S
Cosmos 1703 3.8 18:40:54 10° SSW 18:44:49 60° W 18:48:47 10° N
Thor Agena Rocket 3.8 18:44:12 33° NE 18:45:56 45° E 18:50:54 10° S
ERBS 3.7 18:46:44 10° NNW 18:48:44 28° N 18:48:44 28° N
Cosmos 909 Rocket 4.0 18:50:46 10° NNW 18:57:36 88° WSW 19:03:50 10° SSE
Meteor 2-15 Rocket 4.3 18:51:44 10° S 18:57:48 70° E 19:03:53 10° NNE
Cosmos 1821 Rocket 3.9 19:02:54 10° N 19:09:06 84° W 19:15:21 10° S
Cosmos 1535 Rocket 4.3 19:04:21 10° N 19:10:33 85° E 19:16:39 10° S
Cosmos 1151 Rocket 4.0 19:07:05 10° NNW 19:11:20 48° W 19:15:32 10° SSW
Cosmos 2058 4.4 19:09:31 10° SW 19:13:25 37° WNW 19:17:20 10° N
Cosmos 1980 Rocket 4.2 19:09:57 10° N 19:10:53 13° N 19:10:53 13° N
Cosmos 2082 Rocket 4.1 19:18:24 10° S 19:19:35 16° SSE 19:19:35 16° SSE
ATLAS 5 CENTAUR R/B 4.4 19:21:49 10° N 19:22:31 11° N 19:22:31 11° N
Cosmos 2208 Rocket 4.3 19:22:01 10° SSW 19:27:15 65° WNW 19:28:46 45° N
Lacrosse 5 2.8 19:28:10 10° SSW 19:31:29 40° SSW 19:31:29 40° SSW
Cosmos 2278 4.4 19:27:39 10° NNW 19:31:28 42° N 19:31:28 42° N
Cosmos 1898 Rocket 3.7 19:29:05 10° NNW 19:33:42 66° NW 19:33:42 66° NW
Cosmos 468 Rocket 4.3 19:29:19 10° SSW 19:33:21 56° SSW 19:33:21 56° SSW
Cosmos 1934 Rocket 4.4 19:38:46 10° NNW 19:45:02 61° W 19:51:16 10° S
CZ-4C R/B 3.0 19:40:02 10° SSW 19:43:03 38° SSW 19:43:03 38° SSW
Cosmos 2369 4.4 19:42:26 10° NNW 19:46:19 45° NNW 19:46:19 45° NNW
Envisat 4.5 19:54:08 29° NNW 19:54:08 29° NNW 19:56:41 10° NNW
GEOS 3 Rocket 4.2 19:52:23 57° W 19:52:23 57° W 19:57:01 10° NW
Cosmos 1605 Rocket 4.4 19:45:35 10° N 19:50:11 53° NNW 19:50:11 53° NNW
Cosmos 1697 Rocket 4.5 19:54:11 10° NNW 19:56:00 21° NNW 19:56:00 21° NNW
